Lufkin, TX

4:34 AM CDT on April 29, 2017 (GMT -0500)
Angelina County

Weather History for KLFK - September, 2012

Change the Weather History Date:

Monday, September 10, 2012

  Actual Average Record
Temperature  
Mean Temperature 74 °F 79 °F  
Max Temperature 91 °F 90 °F 102 °F (1909)
Min Temperature 57 °F 68 °F 54 °F (1918)
Degree Days  
Heating Degree Days 0 0  
Month to date heating degree days 0 0  
Since 1 July heating degree days 0 0  
Cooling Degree Days 9 14  
Month to date cooling degree days 183 152  
Year to date cooling degree days 2719 2175  
Growing Degree Days 24 (Base 50)    
Moisture  
Dew Point 55 °F    
Average Humidity 57    
Maximum Humidity 87    
Minimum Humidity 26    
Precipitation  
Precipitation 0.00 in 0.15 in 2.08 in (1989)
Month to date precipitation 0.02 1.40  
Year to date precipitation 31.64 31.99  
Snow  
Snow 0.00 in - - ()
Month to date snowfall 0.0  
Since 1 July snowfall 0.0  
Since 1 September snowfall 0.0  
Snow Depth 0.00 in    
Sea Level Pressure  
Sea Level Pressure 30.07 in    
Wind  
Wind Speed 3 mph (East)    
Max Wind Speed 14 mph    
Max Gust Speed 20 mph    
Visibility 10 miles    
Events      
T = Trace of Precipitation, MM = Missing Value Source: NWS Daily Summary

Daily Weather History Graph

Daily Weather History Graph

Search for Another Location

Airport or City:

Trip Planner

Search our weather history database for the weather conditions in past years. The results will help you decide how hot, cold, wet, or windy it might be!

Date:

Astronomy

Sep. 10, 2012 Rise Set
Actual Time 7:00 AM CDT 7:30 PM CDT
Civil Twilight 6:36 AM CDT 7:54 PM CDT
Nautical Twilight 6:07 AM CDT 8:23 PM CDT
Astronomical Twilight 5:38 AM CDT 8:52 PM CDT
Moon 1:38 AM CDT (9/10) 3:45 PM CDT (9/10)
Length of Visible Light 13h 18m
Length of Day
12h 29m
Waning Crescent, 30% of the Moon is Illuminated
Sep 10
Waning Crescent
Sep 15
New
Sep 22
First Quarter
Sep 29
Full
Oct 8
Last Quarter

Hourly Weather History & Observations

Time (CDT) Temp. Heat Index Dew Point Humidity Pressure Visibility Wind Dir Wind Speed Gust Speed Precip Events Conditions
1:53 AM 66.9 °F - 55.9 °F 68% 30.06 in 10.0 mi Calm Calm - N/A   Clear
2:53 AM 64.9 °F - 55.9 °F 73% 30.06 in 10.0 mi Calm Calm - N/A   Clear
3:53 AM 62.1 °F - 55.9 °F 80% 30.06 in 10.0 mi Calm Calm - N/A   Clear
4:53 AM 60.1 °F - 55.9 °F 86% 30.06 in 10.0 mi Calm Calm - N/A   Clear
5:53 AM 59.0 °F - 55.0 °F 87% 30.08 in 10.0 mi Calm Calm - N/A   Clear
6:53 AM 57.9 °F - 54.0 °F 87% 30.09 in 10.0 mi Calm Calm - N/A   Clear
8:53 AM 72.0 °F - 59.0 °F 64% 30.12 in 10.0 mi Calm Calm - N/A   Clear
9:53 AM 77.0 °F - 57.9 °F 52% 30.13 in 10.0 mi Calm Calm - N/A   Clear
10:53 AM 81.0 °F 80.8 °F 55.9 °F 42% 30.14 in 10.0 mi SSE 8.1 mph - N/A   Clear
12:53 PM 88.0 °F 86.5 °F 55.9 °F 34% 30.10 in 10.0 mi Variable 4.6 mph - N/A   Clear
1:53 PM 87.8 °F - 50.0 °F 27% 30.08 in 10.0 mi ENE 4.6 mph - N/A   Clear
2:53 PM 90.0 °F - 51.1 °F 26% 30.05 in 10.0 mi ENE 10.4 mph - N/A   Clear
3:53 PM 90.0 °F - 52.0 °F 27% 30.03 in 10.0 mi NE 6.9 mph - N/A   Clear
5:53 PM 89.1 °F - 50.0 °F 26% 30.01 in 10.0 mi ENE 10.4 mph - N/A   Clear
6:53 PM 84.9 °F - 52.0 °F 32% 30.02 in 10.0 mi ENE 4.6 mph - N/A   Clear
8:53 PM 73.0 °F - 57.0 °F 57% 30.03 in 10.0 mi SE 4.6 mph - N/A   Clear
9:53 PM 72.0 °F - 55.9 °F 57% 30.05 in 10.0 mi Calm Calm - N/A   Clear
10:53 PM 71.1 °F - 55.9 °F 59% 30.06 in 10.0 mi Calm Calm - N/A   Clear
11:53 PM 68.0 °F - 55.9 °F 65% 30.06 in 10.0 mi Calm Calm - N/A   Clear